Location: *
(57.8420°S, 159.8600°W)
Time: 04:09:27
(UTC+00:00)

Cosmos 1980 Rocket - Pass Details

Date: 18 May 2021
Orbit: 831 x 848 km, 71.0° (Epoch: 23 June)

Event Time Altitude Azimuth Distance (km) Brightness Sun altitude
Rises 05:08:52 0° 246° (WSW) 3,424 6.4 -20.8°
Reaches altitude 10° 05:11:54 10° 231° (SW) 2,493 5.3 -21.3°
Maximum altitude 05:16:18 22° 181° (S) 1,794 3.9 -21.8°
Enters shadow 05:18:07 19° 155° (SSE) 1,933 3.8 -22.1°
